Location: Ernsee
(50.8780°N, 12.0389°E)
Time: 21:56:01
(UTC+00:00)

Cosmos 1697 Rocket - Pass Details

Date: 20 January 2020
Orbit: 833 x 843 km, 71.0° (Epoch: 17 February)

Event Time Altitude Azimuth Distance (km) Brightness Sun altitude
Exits shadow 04:59:42 17° 227° (SW) 1,966 4.3 -19.1°
Maximum altitude 05:03:56 62° 304° (NW) 939 2.6 -18.5°
Drops below altitude 10° 05:09:31 10° 25° (NNE) 2,455 5.3 -17.6°
Sets 05:12:00 0° 29° (NNE) 3,393 6.1 -17.2°
